sat.trackr.live / text

‹ back to catalog

STARLINK-36819

NORAD 67967 · 2026-038G

PAYLOAD ACTIVE UNKNOWN

§ Identity

Operator
Country
US
Launch date
2026-02-25
Launch site
AFWTR
Launch vehicle
Mass (kg)
RCS (m²)

Purposes: comms

External: N2YO · Heavens-Above · Gunter

§ Orbital elements

Epoch: 2026-09-19T22:14:25.963296Z

Period
93.91 min
Inclination
97.2853°
Eccentricity
0.0003252
Mean motion
15.33447083 rev/d
Perigee alt
463.3 km
Apogee alt
467.8 km
Semi-major
6,843.7 km
B*
3.8757e-4
RAAN
271.2427°
Arg perigee
119.6515°
Mean anomaly
240.5052°
Rev number
3,300

§ Raw data

STARLINK-368191 67967U 26038G   26262.92668939  .00012460  00000+0  38757-3 0  99992 67967  97.2853 271.2427 0003252 119.6515 240.5052 15.33447083 33008

JSON: /api/v1/satellites/67967 · /tle

For live sub-satellite position, see the globe view (requires WebGL).

§ Visibility from observer

Set your observer location to see the next 7 days of passes ≥ 10°. The values pass through the URL so the page stays shareable.

No JS? Fill the form by hand. The geolocation button needs JavaScript.